Other Public Products
Issued by NWS Grand Forks, ND

Home | Current Version | Previous Version | Text Only | Print | Product List | Glossary Off
Versions: 1 2 3 4 5 6 7 8 9 10 11 12 13 14 15 16 17 18 19 20 21 22 23 24 25 26 27 28 29 30 31 32 33 34 35 36 37 38 39 40 41 42 43 44 45 46 47 48 49 50

000
FPUS83 KFGF 031031
OPUFGF
PRAIRIE TO PINES WEATHER ROUNDUP
NATIONAL WEATHER SERVICE EASTERN NORTH DAKOTA/GRAND FORKS ND
500 AM CDT THU SEP 03 2015

 **SATELLITE DATA USED TO AUGMENT SKY COVER AT AUTOMATED STATIONS**
 *****  WEATHER ACROSS EASTERN NORTH DAKOTA  *****

CITY           SKY/WX    TMP DP  RH WIND       PRES   REMARKS
GRAND FORKS    CLOUDY    70  66  88 SE12      29.78S
GRAND FORKS AF CLOUDY    70  68  94 SE10      29.77F
GRAND CITY NWS   N/A     68 N/A N/A SE6         N/A
BUXTON         NOT AVBL
DEVILS LAKE    CLOUDY    73  66  78 SE14      29.73S
FARGO          CLOUDY    74  70  87 SE12G23   29.78F
WAHPETON ARPT  CLOUDY    70  66  88 SE15G21   29.81S
$$

 *****  WEATHER ACROSS CENTRAL AND WESTERN NORTH DAKOTA  *****

CITY           SKY/WX    TMP DP  RH WIND       PRES   REMARKS
JAMESTOWN      CLOUDY    74  71  91 SE12      29.74F FOG
BISMARCK       CLEAR     68  68 100 E8        29.68F FOG
MINOT          PTCLDY    68  66  93 E5        29.65S
MINOT AFB      PTCLDY    66  66 100 SE7       29.64S
GARRISON         N/A     70  30  22 NE3       29.67S
WILLISTON      MOCLDY    68  54  60 N6        29.65F
DICKINSON      CLEAR     65  60  84 S10       29.66F
HETTINGER      CLEAR     54  52  93 CALM      29.71F
$$

 *****  OTHER OBSERVATIONS NORTHEAST NORTH DAKOTA  *****

CITY           SKY/WX    TMP DP  RH WIND       PRES   REMARKS
WALHALLA       FAIR      72  72 100 MISG      29.75F
LANGDON        FOG       72  72 100 S12G17    29.77S VSB 1/2
CAVALIER       CLOUDY    72  68  88 S12G18    29.76F
GRAFTON        CLOUDY    70  70 100 SE9       29.78F
CANDO          CLOUDY    73  72  94 S15G21    29.73S
FORT TOTTEN    NOT AVBL
ROLLA          CLOUDY    72  72 100 S12G21    29.74S FOG
RUGBY          CLOUDY    73  73 100 SE12G22   29.70S FOG
 ***** THE ABOVE OBSERVATIONS ARE NON NWS ARE NOT QUALITY
        CONTROLLED AND MAY MIS-REPORT RAIN FOR SNOW...
$$

 *****  OTHER OBSERVATIONS SOUTHEAST NORTH DAKOTA *****

CITY           SKY/WX    TMP DP  RH WIND       PRES   REMARKS
COOPERSTOWN    NOT AVBL
VALLEY CITY    FOG       72  72 100 SE15      29.77S VSB 1/2
OAKES            N/A     70  70 100 E12       29.75F FOG
GWINNER        CLOUDY    73  73 100 SE14      29.78S
SHEYENNE NWR     N/A     71  70  97 SE10      29.95S
BUFFALO        NOT AVBL
WYNDMERE         N/A     72  72 100 SE10        N/A
 ***** THE ABOVE OBSERVATIONS ARE NON NWS ARE NOT QUALITY
       CONTROLLED AND MAY MIS-REPORT RAIN FOR SNOW...
$$

  *****  WEATHER ACROSS NORTHERN MINNESOTA  *****

CITY           SKY/WX    TMP DP  RH WIND       PRES   REMARKS
FLAG ISLAND    CLEAR     68  64  88 S16       29.86S
WARROAD        CLEAR     66  63  88 SE9       29.86S
ROSEAU         CLEAR     66  61  82 SE9       29.84F
HALLOCK        MOCLDY    68  64  88 SE9       29.79S
THF RVR FALLS  PTCLDY    64  64 100 SE12      29.83S
HALSTAD        NOT AVBL
FOSSTON        CLOUDY    66  64  94 SE10      29.86S
BAUDETTE       MOCLDY    64  62  93 SE12      29.89S
WASKISH        CLEAR     63  61  94 E6        29.90S FOG
CROOKSTON      CLOUDY    70  68  94 SE14      29.81S
$$
  *****  WEATHER ACROSS CENTRAL AND WEST MINNESOTA  *****

CITY           SKY/WX    TMP DP  RH WIND       PRES   REMARKS
BEMIDJI        CLOUDY    65  64  97 SE10      29.90S FOG
PARK RAPIDS    CLOUDY    69  65  86 SE7       29.90S
WADENA         CLOUDY    68  64  88 E10       29.88S
DETROIT LAKES  CLOUDY    70  66  88 SE16      29.87S
MOORHEAD       CLOUDY    72  70  94 SE12      29.80S FOG
FERGUS FALLS   CLOUDY    70  70 100 SE10      29.82F
ELBOW LAKE     CLOUDY    68  68 100 E10       29.84S FOG
MORRIS MN      FOG       72  70  94 SE15      29.83S VSB 1/2
STAPLES        CLOUDY    66  64  94 E5        29.90S
WHEATON        CLOUDY    70  68  94 SE12      29.83S FOG
$$
  *****  WEATHER ELSEWHERE ACROSS MINNESOTA  *****

CITY           SKY/WX    TMP DP  RH WIND       PRES   REMARKS
DULUTH         FOG       60  60 100 E8        29.97S VSB 1/4
INTRNTL FALLS  CLOUDY    62  61  96 SE6       29.93S
ELY            FOG       55  54  94 CALM      29.99R VSB 1/4
CLOQUET        FOG       61  59  94 E6        29.96F VSB 1/2
BRAINERD       CLOUDY    66  64  93 VRB3      29.92R
HIBBING        FOG       61  60  97 E6        29.97S VSB 3/4
ALEXANDRIA     CLOUDY    67  67 100 SE12      29.89S FOG
SAINT CLOUD    CLEAR     65  64  97 E5        29.90R
MINNEAPOLIS    PTCLDY    67  65  93 E6        29.90S
$$

  *****  WEATHER ACROSS SOUTH DAKOTA  *****

CITY           SKY/WX    TMP DP  RH WIND       PRES   REMARKS
SIOUX FALLS    CLEAR     67  65  93 E5        29.82F
BROOKINGS      CLEAR     70  66  88 SE7       29.84S
WATERTOWN      CLEAR     71  68  90 S8        29.82R
HURON          CLEAR     71  69  93 SE9       29.75S
SISSETON         N/A     71  71 100 S10       29.79S
ABERDEEN       CLEAR     72  69  90 SE9       29.74S
MITCHELL       CLEAR     70  69  97 SE9       29.77F
PIERRE         CLEAR     68  61  78 CALM      29.71S
MOBRIDGE       CLEAR     69  66  90 SE8       29.67F
RAPID CITY     CLEAR     61  47  59 SE3       29.78S
$$

  *****  SOME WEATHER IN NEARBY STATES *****

CITY           SKY/WX    TMP DP  RH WIND       PRES   REMARKS
GLASGOW MT     CLEAR     67  37  33 N18       29.75R
GREAT FALLS MT FAIR      53  38  56 NE9       29.87S
CHEYENNE WY    MOCLDY    64  43  46 W12       30.06S
SCOTTSBLUFF NE PTCLDY    62  52  69 N3        29.91S
OMAHA NE       CLEAR     75  69  81 S13       29.85S
DES MOINES IA  PTCLDY    73  68  84 S5        29.90S
DAVENPORT IA   PTCLDY    72  68  87 S6        29.95S
CHICAGO IL     PTCLDY    73  69  87 SW5       29.95S
EAU CLAIRE WI  MOCLDY    68  66  93 NE3       29.91S
LA CROSSE WI   MOCLDY    73  69  87 S3        29.90S
$$

  *****  SOME NATIONAL WEATHER *****

CITY           SKY/WX    TMP DP  RH WIND       PRES   REMARKS
LA GUARDIA NY  CLEAR     77  65  66 N3        29.85S
RALEIGH NC     FOG       70  68  94 CALM      29.96R VSB 1/4
ATLANTA GA     CLOUDY    76  70  82 NW5       30.00R
NEW ORLEANS LA CLOUDY    77  71  82 CALM      29.97R
OKLAHOMA CITY  PTCLDY    68  64  87 S6        29.95F
ALBUQUERQUE NM MOCLDY    69  48  47 SE6       30.16S
SALT LAKE CITY FAIR      78  40  25 S17       29.88S
LOS ANGELES CA CLOUDY    68  60  75 NW3       29.92S
BOISE ID       FAIR      59  43  55 NW10      29.84R
SEATTLE WA     MOCLDY    52  50  93 CALM      29.97S
$$

*** WEATHER ACROSS MANITOBA...SASKATCHEWAN AND ONTARIO ***
                ***ONTARIO***

CITY           SKY/WX    TMP DP  RH WIND       PRES   REMARKS
GERALDTON      CLEAR     54  52  94 VRB2      30.02S
THUNDER BAY    CLEAR     48  48 100 W5        30.00S
SIOUX LOOKOUT  CLEAR     61  59  94 S6        29.95S
TORONTO        MOCLDY    72  70  94 N6        29.93S
BIG TROUT LK   MOCLDY    66  59  77 SW7       29.83R
PICKLE LAKE    NOT AVBL
DRYDEN         CLEAR     63  61  94 S9        29.94S
KENORA         CLEAR     64  64 100 S10       29.90
$$
                *** MANITOBA***

CITY           SKY/WX    TMP DP  RH WIND       PRES   REMARKS
BRANDON        PTCLDY    70  68  94 SE7       29.70F
DAUPHIN        CLEAR     66  64  94 NW7       29.67R
ISLAND LAKE    TSTM      63  61  94 NW15G26   29.89R
PILOT MOUND      N/A     72  68  88 S15         N/A
THE PAS        PTCLDY    63  57  82 E3        29.66R
THOMPSON       MOCLDY    59  55  88 NE5       29.71R
WINNIPEG       MOCLDY    72  66  83 S14G20    29.77S
LYNN LAKE      CLOUDY    55  54  94 E6        29.70F
CHURCHILL      FOG       46  45  93 E8        29.78F VSB 1
$$
                ***SASKATCHEWAN***

CITY           SKY/WX    TMP DP  RH WIND       PRES   REMARKS
ESTEVAN        MOCLDY    63  59  88 VRB2      29.67S
KINDERSLEY     PTCLDY    45  39  81 NW6       29.82R
LLOYDMINSTER   CLEAR     46  43  87 W13       29.78R
PRINCE ALBERT  MOCLDY    59  52  77 W12G18    29.69
REGINA         PTCLDY    57  46  67 NW9       29.75R
YORKTON        PTCLDY    63  55  77 NW10      29.71R



USA.gov is the U.S. government's official web portal to all federal, state and local government web resources and services.